Last 24 Hours

Pinyon

10 Minute Data | America/Los_Angeles
as of 5/6/26 9:47 PM PDT
Date & Time Temp (°F) Dew Pt (°F) RH (%) Wind Spd (mph) Wind Dir (°) Wind Gust (mph) Wind Gst Dir (°) Daily Max Temp (°F) Daily Min Temp (°F)
5/6/26 - 2140 62.4 39.2 42 2.9 N | 5 3.2 NNE | 16 69.5 44.1
5/6/26 - 2130 62.5 39.3 42 1.9 N | 1 2.9 N | 1 69.5 44.1
5/6/26 - 2120 62.2 39.4 43 1.3 N | 10 2.5 N | 9 69.5 44.1
5/6/26 - 2110 62.4 39.5 43 2.2 N | 357 3.1 N | 353 69.5 44.1
5/6/26 - 2100 62.8 39.7 43 2.2 N | 357 3.5 NNW | 331 69.5 44.1
5/6/26 - 2050 63.1 39.8 42 2.0 N | 2 2.8 N | 4 69.5 44.1
5/6/26 - 2040 63.2 39.9 42 1.8 N | 5 2.3 N | 11 69.5 44.1
5/6/26 - 2030 63.0 40.0 43 2.6 N | 4 3.2 N | 6 69.5 44.1
5/6/26 - 2020 63.0 40.1 43 3.6 N | 7 4.5 N | 0 69.5 44.1
5/6/26 - 2010 63.1 40.4 43 3.9 N | 7 4.6 NNE | 15 69.5 44.1
5/6/26 - 2000 63.4 40.1 42 4.2 NNE | 20 5.0 NE | 35 69.5 44.1
5/6/26 - 1950 63.6 39.8 42 4.6 NE | 38 6.1 NNE | 25 69.5 44.1
5/6/26 - 1940 64.0 39.9 41 4.4 NNE | 25 5.9 NNE | 30 69.5 44.1
5/6/26 - 1930 64.7 39.8 40 3.9 NNE | 28 6.9 NNE | 27 69.5 44.1
5/6/26 - 1920 65.4 38.7 37 2.8 NE | 44 6.4 NNE | 27 69.5 44.1
5/6/26 - 1910 65.8 38.0 36 3.1 SE | 135 4.2 SE | 145 69.5 44.1
5/6/26 - 1900 66.4 38.0 35 3.9 SE | 146 5.4 SSE | 148 69.5 44.1
5/6/26 - 1850 66.9 37.7 34 3.7 SE | 132 5.0 SE | 138 69.5 44.1
5/6/26 - 1840 67.0 37.5 34 5.1 SE | 138 8.4 SE | 139 69.5 44.1
5/6/26 - 1830 67.6 37.2 33 6.2 SE | 138 8.4 SSE | 150 69.5 44.1
5/6/26 - 1820 68.4 36.5 31 4.5 SE | 130 7.1 SE | 127 69.5 44.1
5/6/26 - 1810 69.0 35.7 29 3.8 ESE | 106 6.9 SE | 128 69.5 44.1
5/6/26 - 1800 69.1 35.3 29 4.3 ESE | 112 9.1 SSE | 159 69.5 44.1
5/6/26 - 1750 68.7 35.2 29 3.6 ENE | 68 8.7 NNE | 28 69.5 44.1
5/6/26 - 1740 68.3 34.8 29 2.4 S | 181 5.7 SE | 144 69.5 44.1
5/6/26 - 1730 68.6 35.3 29 4.7 SE | 129 11.1 E | 99 69.5 44.1
5/6/26 - 1720 68.8 35.1 29 3.4 NNE | 27 6.4 ESE | 123 69.5 44.1
5/6/26 - 1710 69.1 35.5 29 4.0 ESE | 113 9.8 ESE | 104 69.5 44.1
5/6/26 - 1700 69.2 35.2 29 5.7 SE | 141 13.0 ESE | 112 69.5 44.1
5/6/26 - 1650 69.2 35.2 29 5.3 SSE | 166 12.7 SSE | 154 69.5 44.1
5/6/26 - 1640 68.5 35.3 29 4.4 SW | 215 10.0 SSW | 195 69.5 44.1
5/6/26 - 1630 68.3 35.4 30 4.4 ESE | 106 11.5 SE | 126 69.5 44.1
5/6/26 - 1620 68.7 35.4 29 7.0 ESE | 107 12.6 ESE | 104 69.5 44.1
5/6/26 - 1610 67.6 35.4 30 4.0 SSE | 157 9.6 SSE | 156 69.1 44.1
5/6/26 - 1600 68.3 35.6 30 6.3 SE | 146 11.8 SE | 136 69.1 44.1
5/6/26 - 1550 67.8 35.4 30 4.1 SSW | 199 9.7 SSE | 168 69.1 44.1
5/6/26 - 1540 67.8 35.4 30 6.3 SE | 140 14.2 SSE | 152 69.1 44.1
5/6/26 - 1530 67.5 35.0 30 6.3 SE | 146 11.7 ESE | 114 69.1 44.1
5/6/26 - 1520 67.0 35.1 31 6.3 SE | 137 12.9 SE | 144 69.1 44.1
5/6/26 - 1510 68.3 35.3 29 7.4 SSE | 158 17.6 SE | 139 69.1 44.1
5/6/26 - 1500 67.2 35.2 30 5.9 ESE | 120 10.9 SE | 145 67.9 44.1
5/6/26 - 1450 66.8 35.1 31 5.5 SE | 135 13.0 SSE | 163 67.9 44.1
5/6/26 - 1440 66.6 35.1 31 7.8 ESE | 120 15.3 SE | 135 67.5 44.1
5/6/26 - 1430 66.4 34.9 31 5.4 SE | 134 12.7 SE | 139 67.5 44.1
5/6/26 - 1420 66.5 34.8 31 5.3 SSE | 151 11.5 S | 177 67.5 44.1
5/6/26 - 1410 66.4 34.4 30 6.2 E | 98 11.9 ESE | 107 66.9 44.1
5/6/26 - 1400 65.6 33.9 31 5.3 SE | 128 11.8 SE | 131 66.9 44.1
5/6/26 - 1350 65.9 33.6 30 8.0 ESE | 116 14.9 SSE | 157 66.9 44.1
5/6/26 - 1340 65.3 33.8 31 6.8 SE | 140 12.9 SE | 140 66.9 44.1
5/6/26 - 1330 65.0 32.8 30 8.2 SE | 127 14.3 SSE | 152 66.9 44.1
5/6/26 - 1320 64.8 32.4 30 8.0 SE | 128 14.5 SE | 134 66.9 44.1
5/6/26 - 1310 65.7 32.3 29 6.6 SE | 146 13.7 ESE | 122 66.9 44.1
5/6/26 - 1300 64.6 32.2 30 6.1 SSE | 158 13.2 SE | 142 65.5 44.1
5/6/26 - 1250 64.7 31.7 29 5.8 SSE | 160 10.7 S | 190 65.5 44.1
5/6/26 - 1240 64.6 31.5 29 5.8 SE | 137 11.0 SE | 126 65.5 44.1
5/6/26 - 1230 65.0 32.3 29 6.2 SE | 126 10.7 S | 172 65.5 44.1
5/6/26 - 1220 64.5 32.3 30 5.5 ESE | 121 10.7 SE | 128 65.4 44.1
5/6/26 - 1210 63.3 32.3 31 6.1 ESE | 113 12.7 SE | 144 64.0 44.1
5/6/26 - 1200 63.0 31.0 30 5.9 ESE | 118 11.9 SE | 130 63.4 44.1
5/6/26 - 1150 62.5 31.5 31 5.1 SE | 129 9.9 SE | 135 63.4 44.1
5/6/26 - 1140 62.3 32.3 32 6.2 SSE | 150 12.2 ESE | 112 63.4 44.1
5/6/26 - 1130 62.8 33.0 33 6.5 SSE | 154 12.3 SE | 143 63.4 44.1
5/6/26 - 1120 62.3 32.9 33 7.3 SSE | 163 11.5 SSE | 161 62.6 44.1
5/6/26 - 1110 62.0 32.4 33 6.6 SE | 143 11.6 ESE | 115 62.6 44.1
5/6/26 - 1100 61.7 31.7 32 6.6 SSE | 149 10.9 SE | 140 62.6 44.1
5/6/26 - 1050 61.8 32.0 32 5.8 SE | 144 11.7 SE | 136 62.4 44.1
5/6/26 - 1040 61.8 31.9 32 5.8 SE | 143 13.7 SE | 129 62.4 44.1
5/6/26 - 1030 61.3 30.4 31 4.6 SSE | 154 11.2 SSE | 159 62.2 44.1
5/6/26 - 1020 60.8 30.4 32 4.9 S | 170 9.7 SSE | 152 61.5 44.1
5/6/26 - 1010 60.2 30.8 33 5.1 SSE | 153 10.5 S | 179 61.2 44.1
5/6/26 - 1000 60.2 31.8 34 5.4 SSE | 161 10.5 SE | 142 60.6 44.1
5/6/26 - 0950 59.8 32.8 36 4.8 SSE | 151 8.4 SSE | 168 60.2 44.1
5/6/26 - 0940 59.3 33.4 38 5.6 SE | 144 9.4 SSE | 157 59.8 44.1
5/6/26 - 0930 58.8 33.2 38 5.8 SSE | 152 10.2 SSE | 149 59.7 44.1
5/6/26 - 0920 58.9 33.2 38 5.5 SE | 144 9.3 S | 187 59.7 44.1
5/6/26 - 0910 58.7 33.7 39 5.6 SE | 145 8.8 ESE | 121 59.7 44.1
5/6/26 - 0900 58.7 33.4 38 4.8 SSE | 155 8.3 SSE | 155 59.7 44.1
5/6/26 - 0850 58.9 33.5 38 5.0 SSE | 161 7.5 S | 171 59.7 44.1
5/6/26 - 0840 58.6 33.3 38 4.6 SSE | 167 7.7 S | 178 59.7 44.1
5/6/26 - 0830 58.6 32.6 37 5.1 SSE | 168 8.5 SSE | 161 59.7 44.1
5/6/26 - 0820 59.1 31.4 35 4.2 S | 175 7.5 SE | 146 59.7 44.1
5/6/26 - 0810 58.9 30.5 34 1.3 SE | 142 4.2 SE | 127 59.7 44.1
5/6/26 - 0800 58.6 30.6 34 0.9 SSE | 164 2.6 SE | 129 59.3 44.1
5/6/26 - 0750 57.6 31.3 37 0.8 WNW | 301 3.3 WSW | 239 58.0 44.1
5/6/26 - 0740 56.8 31.0 37 1.0 NW | 313 2.1 WNW | 289 57.1 44.1
5/6/26 - 0730 56.0 32.2 40 1.0 NNW | 331 2.1 NNW | 330 56.4 44.1
5/6/26 - 0720 55.2 32.0 41 1.3 NW | 326 2.1 NW | 326 55.6 44.1
5/6/26 - 0710 54.5 31.2 41 1.0 NW | 320 2.1 NW | 326 54.9 44.1
5/6/26 - 0700 53.7 30.3 40 1.9 NW | 315 2.8 NW | 320 54.1 44.1
5/6/26 - 0650 52.6 30.9 43 1.9 NNW | 329 2.8 NW | 315 53.1 44.1
5/6/26 - 0640 52.0 31.6 46 2.9 N | 8 3.9 NNE | 18 52.2 44.1
5/6/26 - 0630 52.0 31.8 46 3.4 N | 1 3.9 N | 10 52.2 44.1
5/6/26 - 0620 51.6 32.1 47 3.9 N | 5 5.0 NNE | 22 52.2 44.1
5/6/26 - 0610 50.9 32.4 49 5.0 NNE | 21 5.7 NNE | 23 52.0 44.1
5/6/26 - 0600 51.2 33.0 49 3.8 N | 10 4.5 NNE | 21 52.0 44.1
5/6/26 - 0550 51.1 32.4 49 2.9 N | 360 3.4 N | 3 52.0 44.1
5/6/26 - 0540 51.1 31.8 47 2.7 NNW | 333 3.1 NW | 326 52.0 44.1
5/6/26 - 0530 51.0 31.6 47 3.0 NNW | 341 3.4 NNW | 348 52.0 44.1
5/6/26 - 0520 51.2 31.5 47 3.1 NNW | 331 3.6 NNW | 329 52.0 44.1
5/6/26 - 0510 51.5 32.1 47 2.6 NNW | 331 3.8 NNW | 344 52.0 44.1
5/6/26 - 0500 51.5 32.1 47 2.3 NW | 312 3.3 NW | 314 52.0 44.1
5/6/26 - 0450 51.9 32.5 47 2.5 NW | 320 3.6 NW | 314 52.0 44.1
5/6/26 - 0440 51.6 33.1 49 2.1 NNW | 330 2.5 NW | 322 51.7 44.1
5/6/26 - 0430 51.3 33.4 50 2.2 NW | 317 2.8 NW | 317 51.5 44.1
5/6/26 - 0420 51.4 33.6 50 2.4 NW | 320 3.3 NNW | 339 51.5 44.1
5/6/26 - 0410 51.2 33.9 51 3.5 N | 5 4.4 NNE | 16 51.4 44.1
5/6/26 - 0400 50.7 34.0 53 3.8 NNE | 16 4.5 NNE | 12 51.0 44.1
5/6/26 - 0350 50.2 34.1 54 4.1 NNE | 14 5.1 NNE | 20 50.6 44.1
5/6/26 - 0340 50.4 34.2 53 3.3 NNW | 342 3.9 N | 3 50.6 44.1
5/6/26 - 0330 50.5 34.1 53 4.2 NNE | 13 4.6 N | 11 50.6 44.1
5/6/26 - 0320 49.9 34.4 55 4.1 NNE | 22 4.7 NNE | 25 50.3 44.1
5/6/26 - 0310 48.9 35.0 58 4.6 NNE | 18 5.1 NNE | 20 49.4 44.1
5/6/26 - 0300 48.2 35.4 61 4.7 NNE | 21 5.9 NNE | 28 48.7 44.1
5/6/26 - 0250 46.4 36.0 67 5.9 NNE | 29 6.6 NNE | 32 47.3 44.1
5/6/26 - 0240 45.6 36.4 70 6.7 NNE | 30 8.0 NNE | 31 46.1 44.1
5/6/26 - 0230 45.0 36.6 72 6.8 NNE | 33 9.0 NE | 41 45.1 44.1
5/6/26 - 0220 44.4 36.9 75 7.3 NE | 37 9.3 NE | 40 44.6 44.1
5/6/26 - 0210 44.3 37.0 75 7.5 NE | 37 9.5 NE | 42 44.5 44.1
5/6/26 - 0200 44.3 37.1 76 7.5 NE | 34 9.8 NE | 38 44.5 44.1
5/6/26 - 0150 44.2 37.3 77 7.6 NNE | 27 9.9 NNE | 27 44.5 44.1
5/6/26 - 0140 44.4 37.4 76 8.3 NNE | 15 11.3 N | 5 44.5 44.2
5/6/26 - 0130 44.4 37.6 77 9.7 N | 5 14.0 N | 350 44.5 44.2
5/6/26 - 0120 44.3 37.8 78 10.9 N | 350 16.9 NNW | 346 44.5 44.2
5/6/26 - 0110 44.3 38.0 78 13.0 NNW | 342 19.6 NNW | 345 44.4 44.2
5/6/26 - 0100 44.2 38.2 79 13.9 NNW | 338 22.0 N | 354 55.2 40.7
5/6/26 - 0050 44.2 38.2 79 14.1 NNW | 339 20.8 NNW | 343 55.2 40.7
5/6/26 - 0040 44.1 38.3 80 15.4 NNW | 340 24.6 NW | 324 55.2 40.7
5/6/26 - 0030 44.2 38.2 79 13.9 NNW | 343 21.2 NNW | 348 55.2 40.7
5/6/26 - 0020 44.3 38.1 79 13.4 NNW | 344 20.9 N | 354 55.2 40.7
5/6/26 - 0010 44.4 38.2 79 13.9 NNW | 341 21.7 NNW | 338 55.2 40.7
5/6/26 - 0000 44.5 38.3 79 15.5 NNW | 338 24.3 NNW | 331 55.2 40.7
5/5/26 - 2350 44.3 38.4 80 15.8 NNW | 335 24.8 NNW | 338 55.2 40.7
5/5/26 - 2340 44.3 38.4 79 15.9 NNW | 336 25.6 NNW | 336 55.2 40.7
5/5/26 - 2330 44.5 38.2 78 14.7 NNW | 338 22.6 NNW | 340 55.2 40.7
5/5/26 - 2320 44.6 38.2 78 15.3 NNW | 339 23.2 NNW | 334 55.2 40.7
5/5/26 - 2310 44.6 38.3 79 16.7 NNW | 336 23.2 NNW | 328 55.2 40.7
5/5/26 - 2300 44.5 38.4 79 16.9 NNW | 335 25.7 NW | 326 55.2 40.7
5/5/26 - 2250 44.5 38.5 79 15.5 NNW | 337 24.3 NNW | 334 55.2 40.7
5/5/26 - 2240 44.7 38.5 79 16.0 NNW | 334 26.4 NNW | 332 55.2 40.7
5/5/26 - 2230 44.8 38.6 79 16.4 NNW | 333 24.1 NNW | 335 55.2 40.7
5/5/26 - 2220 45.0 38.5 78 13.8 NNW | 337 24.1 NNW | 336 55.2 40.7
5/5/26 - 2210 45.2 38.5 77 12.4 NNW | 342 18.5 N | 3 55.2 40.7
5/5/26 - 2200 45.4 38.4 76 11.0 NNW | 345 16.9 NNW | 333 55.2 40.7
5/5/26 - 2150 45.4 38.4 76 11.6 NNW | 346 16.7 N | 0 55.2 40.7
5/5/26 - 2140 45.3 38.5 77 10.1 NNW | 347 15.0 NNW | 330 55.2 40.7
Max 69.2 40.4 80 16.9 - 26.4 - 69.5 44.2
Avg 57.4 35.1 46 6.1 - 10.2 - - -
Min 44.1 30.3 29 0.8 - 2.1 - 44.4 40.7